This is the latest recevied weather packets stored in our database for station/object DB2YI-13. If no packets are shown the sender has not sent any weather packets the latest 10 day(s).
| Time | Temp. | Humidity | Pressure | Rain* | Wind** | Luminosity | Snow |
|---|---|---|---|---|---|---|---|
| 1777749602 | 18.33° C | 58% | - | 0 mm | - | - | - |
| 1777749002 | 18.89° C | 54% | - | 0 mm | - | - | - |
| 1777748401 | 18.89° C | 52% | - | 0 mm | - | - | - |
| 1777747805 | 19.44° C | 51% | - | 0 mm | - | - | - |
| 1777747202 | 20.56° C | 50% | - | 0 mm | - | - | - |
| 1777746601 | 21.11° C | 47% | - | 0 mm | - | - | - |
| 1777746001 | 21.11° C | 44% | - | 0 mm | - | - | - |
| 1777745408 | 21.67° C | 43% | - | 0 mm | - | - | - |
| 1777744801 | 22.22° C | 42% | - | 0 mm | - | - | - |
| 1777744201 | 22.78° C | 40% | - | 0 mm | - | - | - |
| 1777743001 | 23.33° C | 38% | - | 0 mm | - | - | - |
| 1777741802 | 23.89° C | 36% | - | 0 mm | - | - | - |
| 1777741201 | 24.44° C | 35% | - | 0 mm | - | - | - |
| 1777740601 | 24.44° C | 35% | - | 0 mm | - | - | - |
| 1777740001 | 25° C | 36% | - | 0 mm | - | - | - |
| 1777739401 | 25° C | 35% | - | 0 mm | - | - | - |
| 1777738801 | 24.44° C | 35% | - | 0 mm | - | - | - |
| 1777738202 | 25° C | 35% | - | 0 mm | - | - | - |
| 1777737601 | 25° C | 34% | - | 0 mm | - | - | - |
| 1777737001 | 25° C | 34% | - | 0 mm | - | - | - |
| 1777736401 | 25° C | 34% | - | 0 mm | - | - | - |
| 1777735802 | 25° C | 33% | - | 0 mm | - | - | - |
| 1777735201 | 25.56° C | 34% | - | 0 mm | - | - | - |
| 1777734601 | 25.56° C | 33% | - | 0 mm | - | - | - |
| 1777734001 | 25° C | 34% | - | 0 mm | - | - | - |
* Rain latest hour (hover to see other rain measurements)
** Current wind speed in m/s (hover to see current wind gust speed)